DELTA 1 DEB, 10837

Orbit data source: Space-Track

DELTA 1 DEB, 10837 is space debris in SSO originally from a launch on Thu, 29 Jul 1976 UTC launched from the Air Force Western Test Range (AFWTR). Debris objects in space refer to the collection of defunct objects orbiting the Earth. Examples of debris include non-operational satellites, rocket bodies, and fragments generated from explosions, collisions, or faulty payload assembly.

Loading next visibility...
Identifier
10837, 1976-077CH
Orbit
SSO
Country
Flag of USUS
Related business
Manufacturer
Unknown
Mission
Spacecraft
Bus & Motor
Unknown
Mass
Unknown
Launch date (UTC)
1976-07-29 (50 years ago)
Launch vehicle
Unknown
Launch site
Air Force Western Test Range (AFWTR)
Object type
Payload
Rocket body
Debris
Shape & HBR
Unknown shape, 0.1 m
Radar Cross Section
Medium (>0.1 m² and <1 m²)

Expand to show TLE details & history
Last TLE update: 1 day ago

TLE from 1 day ago
0 DELTA 1 DEB
1 10837U 76077CH  26254.74578897 -.00000168  00000-0 -14009-2 0  9993
2 10837 102.3228 178.1236 0200856  32.1122  25.5301 12.04541314204040
Epoch: 2026-09-11T17:53Z
TLE epoch observation values (Epoch: 2026-09-11T17:53:56.167Z)
Latitude
56.64658°
Longitude
-100.40983°
Altitude
1,524.727 km
Speed
7.172 km/s
True Right ascension
10h 35m 21s
True Declination
56° 30' 14"
Sunlit
Object was in daylight at epoch
Visualization orbit readout
Latitude
Unknown
Longitude
Unknown
Altitude
Unknown
Speed
Unknown
Apparent Right ascension
Unknown
Apparent Declination
Unknown
Sunlit
N/A
Visualization observer readout
Local Sidereal Time
17:33:41
Azimuth
Unknown
Elevation
Unknown
Doppler factor
Unknown
Orbital elements
Apogee altitude
1,819.646 km
Perigee altitude
1,496.815 km
Semi-major axis
8,036.368 km
Eccentricity
0.02009
Inclination
102.3228°
RAAN
178.1236°
Arg. of periapsis
32.1122°
True anomaly
26.54499°
Mean anomaly
25.5301°
Eccentric anomaly
26.03522°
Mean motion
3.01268 °/min
Orbital period
119.49 mins
BSTAR
-0.0014009
Loading maneuver chart data...
Computing Atmospheric mass density...
Loading historical data...
Loading historical data...
Loading historical data...
Loading historical data...
Loading historical data...
Loading historical data...
Loading historical data...

Documentation

Showing up to 5 results
|